Temperature
13 14 14 13 14 14 13 13 13 13 12 12 13 13 14 14 14 14 14 14 15 15 15 15 15 15 16 16 16 16 16 15 15 15 16 16 16 16 16 16 16 16 16
13 13 13 13 14 13 13 13 13 13 13 13 13 13 13 13 14 14 14 14 14 14 14 14 14 15 15 15 16 16 16 15 15 15 15 15 16 16 16 16 16 16 16
13 13 13 13 13 13 12 12 12 13 13 13 13 13 13 13 13 13 14 14 14 14 14 14 14 14 15 15 15 15 15 15 15 15 15 15 15 15 15 16 16 16 15
12 13 13 13 13 12 12 12 12 12 12 12 13 13 13 13 13 13 13 14 14 14 14 14 14 14 14 14 14 14 14 15 14 14 14 14 14 15 15 15 15 15 15
12 12 12 12 12 12 12 12 12 12 12 12 12 12 12 12 13 13 13 13 13 13 13 14 14 14 14 14 14 14 14 14 14 14 14 14 14 14 14 14 15 15 15
11 11 11 11 12 12 11 11 11 12 11 12 12 12 12 12 12 12 13 13 13 13 13 13 13 13 13 14 14 14 14 14 14 14 14 14 14 14 14 14 14 14 14
10 10 10 11 11 11 11 11 11 11 11 11 11 11 11 12 12 12 12 12 13 13 13 13 13 13 13 13 13 13 13 13 13 13 13 13 14 14 14 14 14 14 14
8 9 9 10 10 11 10 10 10 11 11 11 11 10 10 11 12 12 12 12 12 12 12 13 13 13 13 13 12 13 13 13 13 13 13 13 13 13 13 13 14 14 14
7 8 8 9 10 10 10 10 10 10 11 11 10 10 10 10 11 11 12 12 12 12 12 12 12 12 12 13 12 12 13 13 13 12 13 13 13 13 13 13 13 14 14
6 7 8 8 9 9 9 9 9 10 10 10 10 10 10 10 10 10 10 11 10 11 11 12 12 12 12 12 12 12 12 13 12 12 12 12 12 13 13 12 13 13 13
5 6 6 7 7 8 9 9 9 9 10 10 9 10 9 9 10 10 10 9 9 10 10 11 11 11 11 11 11 11 11 11 11 11 11 12 12 12 12 12 12 12 12
4 5 5 6 7 7 8 9 9 9 9 9 9 9 9 9 9 9 9 9 9 9 9 9 10 10 10 10 11 10 10 10 10 11 11 11 11 11 11 11 11 11 11
3 4 5 5 6 6 6 8 9 9 9 8 8 8 8 8 8 8 8 9 9 9 9 9 9 9 10 10 10 10 9 10 10 10 10 10 10 10 10 10 10 10 10
1 2 3 4 5 5 6 6 8 8 8 8 7 7 8 8 8 8 8 8 8 8 8 9 9 9 9 9 9 9 9 9 9 9 9 9 9 9 9 9 9 9 9
-3 -1 0 2 3 4 6 6 7 7 7 7 7 7 7 7 7 7 7 7 7 8 8 8 8 8 8 8 8 8 8 8 8 8 8 8 8 8 8 8 8 8 8
-4 -4 -2 -0 2 3 5 5 6 7 7 7 7 7 6 6 7 7 6 7 7 7 7 7 8 8 8 8 8 7 7 7 7 7 7 7 7 7 7 7 7 8 8
-4 -3 -2 -1 1 2 3 4 5 5 6 6 6 6 5 5 5 6 6 6 6 6 7 7 7 7 7 7 7 7 7 7 7 7 7 6 6 6 6 6 7 7 7
-4 -3 -2 -0 1 2 2 3 4 4 6 6 6 6 5 5 4 3 4 5 5 6 6 6 6 7 7 7 7 7 7 7 7 7 6 6 6 6 6 6 6 6 6
-5 -3 -2 -1 0 0 1 2 2 3 4 4 4 4 4 4 1 2 3 4 4 5 5 5 6 6 6 6 7 7 6 6 6 6 6 6 5 5 5 5 5 5 5
-5 -4 -3 -2 -1 -1 -0 0 1 1 1 1 1 1 1 1 1 1 2 2 3 4 4 5 5 5 5 6 6 6 6 5 5 5 5 5 5 5 5 5 5 5 4
-5 -5 -4 -4 -4 -3 -2 -2 -1 -1 -1 -1 -1 -1 -1 -1 -1 -0 0 1 2 2 3 3 4 4 4 4 5 5 5 5 4 4 4 4 4 4 4 4 4 4 4
-6 -6 -5 -5 -5 -5 -5 -4 -3 -4 -4 -3 -3 -3 -3 -2 -2 -2 -1 -1 -0 0 1 1 1 2 3 3 3 4 4 4 4 3 3 3 3 4 4 4 3 3 3
-7 -7 -7 -6 -6 -6 -6 -6 -5 -5 -5 -5 -5 -5 -5 -4 -4 -3 -3 -2 -2 -2 -2 -1 -1 -0 0 1 2 2 2 3 3 2 3 3 3 3 3 2 2 2 2
-8 -8 -8 -8 -7 -7 -7 -7 -7 -6 -7 -7 -7 -7 -6 -6 -6 -5 -5 -4 -4 -4 -3 -3 -2 -2 -2 -1 -1 -0 1 1 1 1 1 2 1 2 2 1 1 2 2
-9 -9 -9 -9 -8 -8 -7 -8 -8 -8 -8 -8 -8 -8 -8 -8 -8 -7 -6 -6 -5 -5 -5 -5 -5 -5 -4 -3 -3 -2 -1 -0 -0 -1 -0 -0 0 1 1 0 0 1 1
-10 -10 -10 -10 -10 -9 -9 -8 -9 -8 -9 -9 -9 -9 -9 -9 -9 -9 -8 -7 -7 -7 -6 -6 -6 -6 -6 -5 -5 -4 -4 -3 -3 -3 -3 -2 -1 -1 -1 -0 0 -0 -0
Wind_Speed
4 4 3 4 4 5 4 3 3 6 7 7 9 8 7 8 10 10 12 18 20 20 20 20 21 20 19 18 18 17 16 15 13 12 11 10 9 9 8 8 9 9 9
4 5 5 4 4 5 5 4 6 5 6 7 8 9 8 8 9 10 12 16 22 21 20 20 21 21 21 20 19 18 18 17 15 14 12 10 10 9 10 10 10 11 12
5 4 5 5 5 7 7 5 6 4 5 5 6 7 8 7 7 9 11 12 16 19 19 19 20 22 22 22 21 20 19 18 17 15 13 11 10 9 10 11 11 11 12
7 4 5 6 6 6 4 6 7 5 5 5 5 6 5 6 8 7 7 7 8 10 14 16 19 22 23 23 23 22 21 19 17 15 13 11 10 9 9 10 10 10 10
10 5 5 6 6 5 6 6 7 6 5 5 5 5 5 5 6 6 5 5 7 9 10 13 17 19 21 21 21 22 21 19 17 16 14 12 10 9 9 9 10 10 10
16 7 6 7 6 6 6 5 7 6 5 5 4 4 5 5 5 5 6 5 6 9 10 9 12 13 16 17 18 19 19 18 18 17 15 13 11 10 9 9 9 9 9
21 12 8 7 7 6 7 7 5 6 6 4 1 3 4 5 5 6 5 5 5 6 9 9 9 8 10 12 14 15 16 17 18 17 15 13 12 10 10 10 10 9 8
21 16 14 10 8 6 7 6 5 4 4 5 4 2 2 4 3 3 4 5 5 3 4 6 7 7 8 7 7 10 13 16 18 17 15 13 13 13 12 11 10 10 9
21 19 16 13 9 7 7 7 6 6 5 4 4 4 3 4 2 2 2 2 3 4 4 4 4 6 9 8 7 5 6 8 12 13 12 12 12 12 12 9 4 6 7
19 20 16 15 10 7 7 6 6 5 5 4 3 3 3 3 2 1 3 3 3 1 2 4 4 4 6 8 9 9 8 7 6 8 9 9 8 8 8 5 2 2 4
16 19 18 16 12 8 8 7 6 5 4 4 4 3 2 1 2 2 1 3 3 3 1 2 5 5 6 8 9 10 9 7 6 7 7 7 6 4 3 3 3 3 4
14 17 19 18 16 11 9 8 8 8 6 5 4 3 4 4 3 3 2 3 2 2 3 2 3 4 5 7 10 11 10 8 8 8 7 6 6 5 5 3 2 3 4
14 16 19 18 18 13 10 7 7 7 7 5 4 4 4 4 4 4 4 3 3 2 2 2 1 2 5 7 10 13 11 10 10 9 8 8 6 5 4 3 2 3 4
15 19 19 20 21 14 11 9 5 7 7 7 4 2 3 3 4 4 4 4 2 1 1 2 2 2 3 7 10 12 10 10 11 11 10 9 8 6 5 5 4 4 5
16 18 19 19 19 7 7 7 6 9 8 6 7 5 1 1 3 3 3 4 5 4 4 3 2 2 2 5 10 12 10 12 12 11 10 10 9 7 5 4 4 4 5
19 20 19 19 18 10 6 5 2 4 10 8 7 7 5 4 2 1 2 2 3 5 4 5 5 3 3 3 9 11 11 14 14 12 11 11 9 7 4 3 2 2 3
19 21 22 19 17 12 7 6 7 5 8 8 7 8 6 4 5 4 1 2 3 4 4 4 3 2 3 4 3 6 8 10 12 13 13 12 9 7 5 3 0 2 3
20 21 18 12 6 3 2 3 4 5 6 8 7 7 5 7 6 5 3 2 0 3 4 5 4 3 3 4 5 5 4 8 9 14 17 14 10 8 6 4 3 2 1
20 20 15 11 13 9 7 7 7 8 9 9 8 8 7 7 2 1 4 3 3 1 2 4 4 2 2 1 2 3 2 2 3 10 16 14 12 9 7 6 5 3 1
19 19 17 14 13 12 12 12 11 11 11 10 9 9 8 6 5 4 4 4 4 3 1 1 2 1 1 2 2 2 3 3 3 3 4 9 12 10 9 8 6 4 2
16 17 18 16 13 12 13 14 14 13 12 11 11 10 10 11 12 8 6 6 6 4 3 2 1 2 2 2 1 1 3 3 3 3 2 2 2 4 4 3 3 5 6
14 13 15 16 15 13 19 20 16 12 12 12 10 9 9 11 12 12 12 11 10 7 4 3 2 2 2 2 2 2 2 3 3 1 1 1 1 1 1 4 8 13 15
14 9 11 13 14 15 19 18 16 10 10 9 7 7 7 8 8 7 8 10 12 14 11 7 5 4 3 4 3 2 2 1 2 4 2 1 2 1 3 8 15 16 13
14 10 8 10 12 15 16 13 13 9 7 7 7 7 8 8 8 9 6 9 10 10 11 9 7 4 2 3 3 2 2 2 4 5 5 1 3 3 3 6 12 14 13
12 12 9 8 11 13 15 13 10 6 6 7 7 7 7 7 10 12 7 7 8 8 10 11 11 11 12 9 3 2 3 2 2 2 5 2 2 3 3 1 6 12 12
12 12 9 9 12 12 14 12 9 4 5 5 6 8 10 8 9 11 6 5 7 7 6 8 10 13 13 14 16 9 4 2 2 1 4 3 2 3 3 2 3 7 9
Wind_Direction
272 268 267 270 261 252 253 259 250 240 228 227 233 234 233 231 227 225 224 224 211 206 210 204 205 203 202 202 201 200 199 199 199 199 203 206 210 221 233 239 239 243 250
260 258 255 259 261 257 253 246 244 239 235 235 236 235 232 230 223 220 214 214 214 211 212 208 210 210 206 204 202 200 199 201 203 205 208 211 218 229 238 242 248 252 256
282 269 267 267 264 269 269 261 254 242 253 256 254 246 236 226 215 213 208 200 208 214 216 212 215 218 213 209 205 201 198 200 201 200 202 207 217 231 246 255 260 262 262
272 258 254 257 261 263 257 256 251 247 242 246 257 260 244 231 214 210 204 197 200 209 217 218 217 218 218 217 212 206 200 194 195 195 199 205 215 228 246 264 276 276 272
279 244 243 252 260 256 252 246 240 218 230 241 245 256 251 241 231 216 216 213 213 204 204 215 221 219 223 223 223 218 208 196 193 193 196 200 210 226 244 261 275 282 283
311 280 263 266 264 258 260 250 238 214 216 225 244 264 260 247 240 227 223 217 215 212 204 201 220 225 225 226 228 226 215 203 195 193 193 200 211 226 241 256 268 276 281
332 319 285 262 257 244 250 245 228 223 220 195 169 269 273 260 243 233 231 228 222 215 203 198 200 208 217 229 227 224 221 211 206 202 199 207 217 230 243 253 261 270 276
329 320 307 279 250 235 239 238 228 204 202 179 163 178 276 296 272 254 241 237 242 230 208 198 183 189 202 212 221 216 218 217 214 212 206 215 228 238 243 247 250 260 269
330 325 317 298 261 229 220 211 213 205 189 191 185 162 175 235 295 321 308 264 234 215 204 184 174 184 183 179 179 177 175 201 214 214 214 219 226 235 241 239 253 270 272
325 322 319 310 277 238 224 208 199 193 169 182 180 176 158 193 176 286 337 350 342 250 190 165 153 145 149 144 138 133 133 140 171 192 202 204 211 220 226 218 136 54 13
321 319 319 320 303 269 228 206 194 175 171 175 181 172 131 145 147 142 269 324 348 351 12 154 140 138 145 140 129 132 138 143 159 173 176 175 171 171 170 105 59 7 340
317 317 317 316 305 294 255 201 184 171 172 171 176 183 156 169 178 146 178 240 271 316 339 354 123 141 139 146 137 143 146 147 151 151 151 145 135 125 108 77 30 11 358
315 315 314 311 298 274 272 235 167 152 152 157 172 196 178 175 162 148 155 192 236 286 323 315 280 150 137 143 143 150 150 147 151 148 142 136 128 113 89 66 28 8 5
309 308 307 305 294 252 228 234 179 142 133 127 130 180 193 184 172 171 166 155 174 282 308 268 276 193 151 156 157 152 147 153 150 146 144 142 136 118 92 75 55 23 4
309 304 302 298 291 268 223 208 195 145 124 107 93 71 24 226 201 181 176 163 159 187 232 249 242 212 171 162 161 153 156 163 156 151 149 143 133 121 101 79 61 37 14
311 307 302 292 281 253 198 173 141 127 119 113 99 78 40 349 342 113 191 189 164 167 205 227 232 242 192 186 175 163 171 171 169 165 160 154 147 141 130 98 64 40 11
311 307 301 297 277 243 214 173 152 150 113 103 93 94 85 30 2 6 11 201 190 163 186 227 249 263 190 178 162 177 174 163 173 178 170 166 162 157 155 163 203 7 7
320 309 306 329 316 231 178 167 147 131 113 109 98 91 78 63 22 346 9 24 125 197 181 211 234 226 220 198 171 184 185 173 182 186 176 177 175 174 184 196 216 255 298
335 331 332 14 32 24 40 51 55 64 67 67 72 83 81 95 158 6 34 35 32 17 189 189 219 221 251 15 108 96 79 101 191 191 174 186 180 182 186 175 165 156 196
346 348 356 24 37 34 37 41 46 50 58 59 60 65 75 96 112 95 61 35 34 43 44 164 148 125 56 360 59 111 112 77 41 27 115 141 143 139 126 121 127 120 96
348 352 3 14 32 45 50 48 46 43 44 43 40 39 44 55 66 75 73 54 42 36 34 36 76 98 66 43 70 120 140 134 74 21 20 42 92 102 96 95 112 107 95
346 357 7 9 14 31 46 51 54 48 45 38 30 27 33 40 39 42 53 59 59 56 48 47 26 54 68 47 15 47 112 163 155 59 86 178 289 104 57 75 94 94 89
341 359 13 10 5 13 36 45 53 55 56 49 36 26 29 25 40 30 43 66 60 59 62 56 52 36 28 24 16 62 77 36 92 359 4 54 353 60 42 78 94 85 74
348 356 14 17 7 1 22 48 56 60 62 55 43 32 25 9 24 29 30 71 69 65 61 59 60 47 42 12 12 7 57 75 86 42 6 69 2 346 13 62 72 64 54
349 350 8 10 17 357 14 44 61 52 49 45 35 25 35 5 32 39 38 64 65 46 55 59 70 72 68 61 61 52 29 60 95 40 8 24 0 330 326 333 37 36 37
350 355 9 9 15 357 3 25 49 48 45 41 31 19 18 23 42 55 43 45 64 44 50 66 65 63 54 50 50 50 32 60 102 102 7 9 5 340 303 307 354 21 30
Height
1503 1502 1502 1501 1501 1501 1500 1499 1499 1498 1498 1497 1497 1496 1497 1498 1500 1501 1502 1504 1507 1509 1511 1513 1514 1516 1517 1519 1520 1520 1522 1524 1526 1527 1528 1529 1530 1531 1533 1534 1535 1535 1535
1500 1499 1498 1497 1496 1495 1495 1495 1494 1493 1493 1493 1493 1492 1493 1493 1495 1496 1498 1499 1502 1505 1507 1508 1510 1511 1513 1514 1516 1516 1518 1520 1522 1524 1526 1527 1528 1529 1530 1531 1532 1533 1533
1498 1496 1494 1492 1491 1490 1490 1489 1489 1488 1488 1488 1488 1488 1488 1488 1489 1491 1493 1494 1496 1499 1502 1503 1504 1506 1508 1510 1511 1513 1514 1516 1518 1520 1522 1524 1525 1527 1528 1528 1529 1530 1530
1495 1492 1490 1488 1487 1486 1485 1484 1483 1482 1482 1482 1483 1483 1483 1483 1484 1485 1487 1489 1490 1492 1495 1497 1499 1501 1503 1505 1507 1509 1511 1512 1514 1516 1518 1520 1522 1524 1525 1526 1526 1527 1527
1490 1488 1486 1484 1482 1480 1479 1478 1477 1477 1476 1477 1477 1477 1478 1478 1479 1480 1481 1483 1484 1486 1488 1491 1494 1495 1498 1500 1502 1505 1507 1508 1510 1512 1514 1516 1518 1520 1521 1522 1523 1524 1524
1485 1483 1481 1478 1476 1474 1473 1472 1472 1471 1470 1471 1471 1471 1472 1473 1473 1474 1476 1477 1478 1479 1481 1484 1487 1489 1492 1495 1497 1499 1502 1504 1506 1508 1510 1512 1514 1516 1517 1519 1520 1520 1521
1476 1474 1474 1472 1470 1468 1467 1466 1466 1465 1465 1465 1464 1465 1466 1467 1468 1468 1469 1471 1472 1473 1475 1477 1480 1484 1486 1488 1491 1494 1496 1499 1502 1504 1506 1509 1511 1512 1514 1515 1516 1517 1517
1468 1466 1464 1463 1463 1461 1460 1460 1460 1459 1459 1459 1459 1460 1460 1462 1462 1463 1464 1465 1466 1467 1469 1471 1474 1477 1480 1482 1485 1488 1490 1493 1496 1499 1501 1504 1507 1508 1510 1511 1512 1513 1514
1461 1459 1456 1455 1455 1454 1452 1452 1453 1454 1454 1454 1455 1456 1456 1456 1456 1458 1459 1460 1461 1462 1463 1465 1467 1470 1474 1476 1479 1482 1485 1488 1491 1494 1495 1498 1501 1503 1505 1506 1507 1509 1510
1455 1452 1449 1448 1448 1448 1446 1444 1445 1447 1449 1449 1451 1451 1452 1453 1454 1454 1455 1455 1456 1458 1459 1460 1462 1465 1468 1471 1474 1477 1480 1482 1485 1488 1491 1493 1496 1498 1500 1501 1502 1503 1505
1449 1446 1444 1442 1440 1441 1440 1438 1438 1440 1442 1444 1446 1447 1447 1449 1449 1451 1452 1453 1454 1455 1456 1456 1458 1460 1463 1466 1469 1473 1475 1478 1481 1484 1487 1489 1491 1493 1495 1496 1498 1500 1501
1443 1440 1438 1436 1434 1433 1434 1432 1432 1433 1436 1439 1441 1442 1443 1444 1446 1447 1448 1450 1452 1453 1454 1454 1456 1457 1459 1463 1466 1469 1472 1475 1477 1480 1483 1485 1487 1489 1490 1492 1494 1495 1496
1436 1433 1430 1429 1428 1427 1427 1428 1426 1427 1429 1432 1435 1437 1438 1440 1442 1443 1445 1446 1448 1451 1452 1454 1455 1456 1458 1461 1463 1466 1469 1471 1474 1476 1479 1480 1483 1485 1487 1488 1489 1490 1492
1430 1426 1423 1422 1420 1419 1420 1421 1421 1421 1424 1426 1429 1432 1433 1436 1439 1440 1441 1443 1444 1447 1449 1451 1453 1455 1457 1459 1461 1464 1465 1468 1470 1472 1475 1477 1479 1482 1483 1483 1484 1486 1487
1424 1419 1416 1414 1413 1413 1413 1414 1417 1415 1417 1420 1421 1426 1430 1432 1435 1436 1437 1439 1441 1442 1445 1447 1449 1452 1454 1456 1458 1460 1463 1466 1467 1470 1472 1474 1476 1478 1479 1479 1480 1481 1483
1419 1413 1409 1407 1405 1406 1407 1408 1411 1410 1410 1413 1414 1420 1425 1429 1431 1432 1433 1434 1436 1439 1441 1444 1447 1448 1451 1453 1455 1457 1460 1462 1465 1467 1469 1471 1472 1474 1476 1476 1477 1478 1480
1415 1408 1403 1399 1396 1397 1400 1403 1405 1407 1407 1407 1410 1414 1419 1423 1425 1427 1428 1430 1432 1434 1436 1440 1444 1445 1447 1449 1452 1456 1459 1460 1462 1465 1467 1469 1470 1471 1473 1473 1475 1475 1476
1412 1405 1400 1394 1390 1392 1396 1398 1400 1402 1404 1403 1407 1411 1413 1414 1420 1423 1423 1424 1426 1429 1431 1434 1439 1441 1443 1445 1448 1452 1455 1457 1459 1462 1464 1466 1467 1468 1469 1470 1472 1472 1472
1410 1403 1398 1393 1390 1391 1392 1394 1396 1397 1397 1400 1403 1405 1407 1409 1417 1418 1418 1419 1420 1424 1426 1429 1432 1436 1438 1439 1443 1446 1449 1452 1455 1458 1460 1462 1463 1465 1466 1467 1468 1469 1469
1413 1404 1397 1393 1392 1391 1390 1390 1391 1392 1394 1397 1399 1400 1401 1405 1408 1411 1412 1413 1415 1417 1420 1423 1427 1429 1431 1433 1437 1440 1444 1446 1450 1453 1455 1457 1459 1460 1462 1463 1464 1464 1465
1418 1411 1402 1397 1395 1393 1392 1391 1390 1390 1391 1393 1395 1396 1398 1400 1402 1405 1406 1407 1409 1412 1415 1418 1421 1424 1425 1428 1432 1435 1438 1441 1444 1447 1448 1451 1455 1456 1456 1458 1459 1459 1459
1421 1415 1409 1403 1399 1398 1396 1394 1392 1394 1394 1395 1396 1398 1398 1398 1400 1402 1402 1404 1406 1409 1411 1414 1416 1419 1421 1423 1426 1429 1433 1436 1438 1442 1444 1446 1450 1451 1452 1453 1452 1452 1452
1422 1417 1412 1409 1405 1402 1400 1398 1397 1397 1397 1398 1399 1400 1399 1398 1399 1400 1401 1402 1403 1405 1408 1410 1412 1413 1416 1418 1421 1424 1426 1429 1431 1434 1438 1440 1443 1446 1447 1446 1446 1446 1447
1422 1419 1415 1412 1409 1406 1405 1402 1400 1400 1400 1400 1401 1401 1400 1399 1400 1400 1401 1401 1402 1405 1406 1407 1409 1410 1411 1412 1416 1419 1421 1425 1426 1430 1433 1435 1438 1440 1441 1440 1440 1440 1441
1424 1420 1417 1414 1411 1409 1408 1406 1404 1403 1402 1402 1402 1401 1400 1401 1400 1399 1400 1401 1401 1402 1404 1405 1407 1408 1409 1411 1413 1415 1417 1420 1421 1425 1427 1430 1432 1434 1435 1435 1436 1435 1435
1427 1422 1419 1416 1413 1412 1411 1409 1407 1405 1403 1403 1403 1403 1403 1403 1402 1400 1400 1399 1398 1400 1401 1403 1405 1406 1408 1409 1410 1412 1414 1417 1417 1420 1422 1425 1426 1428 1430 1429 1429 1428 1429